THORAD AGENA D DEB, 14478

Orbit data source: Space-Track

THORAD AGENA D DEB, 14478 is space debris in SSO originally from a launch on Wed, 08 Apr 1970 UTC launched from the Air Force Western Test Range (AFWTR). Debris objects in space refer to the collection of defunct objects orbiting the Earth. Examples of debris include non-operational satellites, rocket bodies, and fragments generated from explosions, collisions, or faulty payload assembly.

Loading next visibility...
Identifier
14478, 1970-025NW
Orbit
SSO
Country
Flag of USUS
Related business
Manufacturer
Unknown
Mission
Spacecraft
Bus & Motor
Unknown
Mass
Unknown
Launch date (UTC)
1970-04-08 (56 years ago)
Launch vehicle
Unknown
Launch site
Air Force Western Test Range (AFWTR)
Object type
Payload
Rocket body
Debris
Shape & HBR
Unknown shape, 0.1 m
Radar Cross Section
Medium (>0.1 m² and <1 m²)

Expand to show TLE details & history
Last TLE update: 12 hours ago

TLE from 12 hours ago
0 THORAD AGENA D DEB
1 14478U 70025NW  26256.89368543  .00006099  00000-0  19175-1 0  9993
2 14478 100.9035  63.0075 0495293 226.0040 129.9200 12.69138198620369
Epoch: 2026-09-13T21:26Z
TLE epoch observation values (Epoch: 2026-09-13T21:26:54.421Z)
Latitude
0.00006°
Longitude
108.39894°
Altitude
1,645.564 km
Speed
6.932 km/s
True Right ascension
04h 12m 01s
True Declination
0° 00' 00"
Sunlit
Object was in daylight at epoch
Visualization orbit readout
Latitude
Unknown
Longitude
Unknown
Altitude
Unknown
Speed
Unknown
Apparent Right ascension
Unknown
Apparent Declination
Unknown
Sunlit
N/A
Visualization observer readout
Local Sidereal Time
02:23:41
Azimuth
Unknown
Elevation
Unknown
Doppler factor
Unknown
Orbital elements
Apogee altitude
1,767.316 km
Perigee altitude
998.517 km
Semi-major axis
7,761.054 km
Eccentricity
0.04953
Inclination
100.9035°
RAAN
63.0075°
Arg. of periapsis
226.004°
True anomaly
134.10261°
Mean anomaly
129.92°
Eccentric anomaly
132.02798°
Mean motion
3.1744 °/min
Orbital period
113.41 mins
BSTAR
0.019175
Loading maneuver chart data...
Computing Atmospheric mass density...

Documentation

Showing up to 5 results
|